| time (UTC) | temp C | wind direction | speed KPH | gust KPH | rain 1hr cm | rain 24hr cm | rain mn cm | humidity % | barometer mb |
| 20260506161535 | 10 | 237 | 0.0 | 9.7 | 0.13 | 1.09 | 0.51 | 95 | 1006.3 |
| 20260506160036 | 11 | 250 | 0.0 | 6.4 | 0.05 | 1.02 | 0.43 | 96 | 1006.2 |
| 20260506154634 | 11 | 212 | 0.0 | 1.6 | 0.05 | 0.99 | 0.41 | 96 | 1006.1 |
| 20260506153029 | 11 | 245 | 0.0 | 1.6 | 0.05 | 0.97 | 0.38 | 96 | 1006.1 |
| 20260506151530 | 11 | 268 | 0.0 | 1.6 | 0.10 | 0.97 | 0.38 | 97 | 1006.1 |
| 20260506150028 | 11 | 268 | 0.0 | 1.6 | 0.15 | 0.97 | 0.38 | 97 | 1006.2 |
| 20260506144528 | 10 | 268 | 0.0 | 1.6 | 0.18 | 0.94 | 0.36 | 97 | 1006.3 |
| 20260506143024 | 10 | 168 | 0.0 | 4.8 | 0.20 | 0.91 | 0.33 | 97 | 1006.6 |
| 20260506141529 | 10 | 160 | 0.0 | 3.2 | 0.15 | 0.86 | 0.28 | 97 | 1006.9 |
| 20260506140022 | 10 | 148 | 0.0 | 3.2 | 0.10 | 0.81 | 0.23 | 97 | 1007.0 |
| 20260506134521 | 10 | 263 | 0.0 | 1.6 | 0.05 | 0.76 | 0.18 | 97 | 1007.1 |
| 20260506133024 | 10 | 231 | 0.0 | 1.6 | 0.00 | 0.71 | 0.13 | 97 | 1007.0 |
| 20260506131520 | 10 | 77 | 0.0 | 1.6 | 0.00 | 0.71 | 0.13 | 97 | 1006.8 |
| 20260506130020 | 10 | 76 | 0.0 | 1.6 | 0.03 | 0.71 | 0.13 | 97 | 1006.6 |
| 20260506124618 | 10 | 20 | 0.0 | 1.6 | 0.03 | 0.71 | 0.13 | 97 | 1006.9 |
| 20260506123018 | 10 | 75 | 0.0 | 1.6 | 0.05 | 0.71 | 0.13 | 97 | 1006.9 |
| 20260506121517 | 10 | 127 | 0.0 | 1.6 | 0.05 | 0.71 | 0.13 | 97 | 1007.1 |
| 20260506120034 | 9 | 127 | 0.0 | 1.6 | 0.05 | 0.69 | 0.10 | 97 | 1007.3 |
| 20260506114518 | 9 | 170 | 0.0 | 1.6 | 0.05 | 0.69 | 0.10 | 97 | 1007.7 |
| 20260506113015 | 10 | 244 | 0.0 | 1.6 | 0.03 | 0.66 | 0.08 | 97 | 1007.9 |
| 20260506111514 | 9 | 149 | 0.0 | 0.0 | 0.03 | 0.66 | 0.08 | 97 | 1007.7 |
| 20260506110013 | 9 | 157 | 0.0 | 1.6 | 0.00 | 0.64 | 0.05 | 97 | 1007.6 |
| 20260506104525 | 9 | 255 | 0.0 | 3.2 | 0.03 | 0.64 | 0.05 | 97 | 1007.5 |
| 20260506103033 | 9 | 242 | 0.0 | 3.2 | 0.05 | 0.64 | 0.05 | 97 | 1007.5 |
| 20260506101510 | 9 | 83 | 1.6 | 12.9 | 0.05 | 0.64 | 0.05 | 97 | 1007.1 |
| 20260506100008 | 9 | 229 | 0.0 | 1.6 | 0.05 | 0.66 | 0.05 | 97 | 1007.6 |
| 20260506094510 | 9 | 309 | 0.0 | 1.6 | 0.03 | 0.64 | 0.03 | 97 | 1007.8 |
| 20260506093016 | 9 | 244 | 0.0 | 4.8 | 0.00 | 0.61 | 0.00 | 96 | 1007.7 |
| 20260506091505 | 10 | 238 | 0.0 | 3.2 | 0.00 | 0.61 | 0.00 | 96 | 1007.6 |
| 20260506090004 | 10 | 195 | 0.0 | 1.6 | 0.00 | 0.61 | 0.00 | 96 | 1007.3 |
| 20260506084634 | 10 | 168 | 0.0 | 1.6 | 0.00 | 0.61 | 0.00 | 96 | 1007.3 |
| 20260506083058 | 10 | 167 | 0.0 | 0.0 | 0.00 | 0.61 | 0.00 | 96 | 1007.5 |
| 20260506081600 | 10 | 168 | 0.0 | 0.0 | 0.00 | 0.61 | 0.00 | 96 | 1007.8 |
| 20260506073151 | 10 | 242 | 0.0 | 1.6 | 0.00 | 0.61 | 0.00 | 96 | 1008.2 |
| 20260506071549 | 10 | 241 | 0.0 | 1.6 | 0.00 | 0.61 | 0.00 | 96 | 1008.4 |
| 20260506061543 | 10 | 273 | 0.0 | 0.0 | 0.00 | 0.61 | 0.00 | 95 | 1009.0 |
| 20260506044537 | 11 | 250 | 0.0 | 1.6 | 0.00 | 0.61 | 0.00 | 93 | 1009.6 |
| 20260506043030 | 11 | 250 | 0.0 | 1.6 | 0.00 | 0.61 | 0.00 | 93 | 1009.6 |
| 20260506041529 | 11 | 250 | 0.0 | 1.6 | 0.00 | 0.61 | 0.00 | 92 | 1009.4 |
| 20260506040032 | 11 | 250 | 0.0 | 0.0 | 0.00 | 0.61 | 0.00 | 91 | 1009.8 |
| 20260506034524 | 11 | 250 | 0.0 | 1.6 | 0.00 | 0.61 | 0.61 | 91 | 1009.8 |
| 20260506033023 | 11 | 127 | 0.0 | 0.0 | 0.00 | 0.61 | 0.61 | 92 | 1009.6 |
| 20260506031523 | 11 | 228 | 0.0 | 1.6 | 0.00 | 0.61 | 0.61 | 92 | 1010.1 |
| 20260506030021 | 12 | 219 | 0.0 | 1.6 | 0.00 | 0.61 | 0.61 | 92 | 1009.4 |
| 20260506024521 | 12 | 164 | 0.0 | 1.6 | 0.00 | 0.61 | 0.61 | 92 | 1009.6 |
| 20260506023034 | 12 | 164 | 0.0 | 3.2 | 0.00 | 0.61 | 0.61 | 92 | 1009.5 |
| 20260506021532 | 12 | 161 | 0.0 | 3.2 | 0.00 | 0.61 | 0.61 | 92 | 1009.3 |
| 20260506020025 | 12 | 243 | 0.0 | 3.2 | 0.00 | 0.61 | 0.61 | 91 | 1009.0 |
| 20260506014518 | 12 | 1 | 0.0 | 4.8 | 0.03 | 0.61 | 0.61 | 89 | 1008.8 |
| 20260506013018 | 12 | 319 | 1.6 | 9.7 | 0.05 | 0.61 | 0.61 | 88 | 1009.3 |
| 20260506011513 | 13 | 51 | 3.2 | 12.9 | 0.10 | 0.61 | 0.61 | 88 | 1009.0 |
| 20260506010013 | 14 | 343 | 0.0 | 17.7 | 0.10 | 0.61 | 0.61 | 90 | 1007.8 |
| 20260506004511 | 15 | 299 | 1.6 | 9.7 | 0.08 | 0.58 | 0.58 | 92 | 1008.0 |
| 20260506003007 | 15 | 325 | 3.2 | 16.1 | 0.05 | 0.56 | 0.56 | 97 | 1007.5 |
| 20260506001502 | 15 | 249 | 0.0 | 1.6 | 0.00 | 0.51 | 0.51 | 96 | 1007.2 |
| 20260505234600 | 15 | 178 | 0.0 | 3.2 | 0.00 | 0.51 | 0.51 | 96 | 1006.4 |
| 20260505233105 | 15 | 73 | 0.0 | 3.2 | 0.00 | 0.51 | 0.51 | 96 | 1006.3 |
| 20260505231609 | 16 | 70 | 0.0 | 3.2 | 0.00 | 0.51 | 0.51 | 96 | 1006.3 |
| 20260505230055 | 16 | 227 | 0.0 | 1.6 | 0.00 | 0.51 | 0.51 | 96 | 1006.1 |
| 20260505224557 | 16 | 227 | 0.0 | 1.6 | 0.00 | 0.51 | 0.51 | 96 | 1006.2 |
| 20260505223056 | 15 | 184 | 0.0 | 0.0 | 0.00 | 0.51 | 0.51 | 97 | 1006.0 |
| 20260505221559 | 15 | 97 | 0.0 | 1.6 | 0.00 | 0.51 | 0.51 | 97 | 1005.9 |
| 20260505220058 | 15 | 15 | 0.0 | 3.2 | 0.00 | 0.51 | 0.51 | 97 | 1005.7 |
| 20260505214557 | 15 | 208 | 0.0 | 1.6 | 0.00 | 0.51 | 0.51 | 96 | 1005.9 |
| 20260505213051 | 15 | 208 | 0.0 | 3.2 | 0.00 | 0.51 | 0.51 | 96 | 1006.2 |
| 20260505211550 | 15 | 163 | 0.0 | 1.6 | 0.13 | 0.51 | 0.51 | 96 | 1006.4 |
| 20260505210049 | 15 | 161 | 0.0 | 3.2 | 0.30 | 0.51 | 0.51 | 95 | 1006.1 |
| 20260505204549 | 15 | 96 | 0.0 | 1.6 | 0.38 | 0.51 | 0.51 | 95 | 1005.8 |
| 20260505203106 | 14 | 253 | 0.0 | 3.2 | 0.38 | 0.51 | 0.51 | 93 | 1006.3 |
| 20260505201552 | 15 | 323 | 3.2 | 19.3 | 0.23 | 0.36 | 0.36 | 89 | 1006.7 |
| 20260505200051 | 16 | 18 | 6.4 | 17.7 | 0.08 | 0.20 | 0.20 | 84 | 1006.1 |
| 20260505194544 | 20 | 313 | 11.3 | 27.4 | 0.00 | 0.13 | 0.13 | 70 | 1005.9 |
| 20260505193044 | 20 | 235 | 4.8 | 9.7 | 0.08 | 0.13 | 0.13 | 67 | 1004.4 |
| 20260505191545 | 18 | 247 | 0.0 | 4.8 | 0.10 | 0.13 | 0.13 | 71 | 1004.5 |
| 20260505190042 | 17 | 242 | 0.0 | 6.4 | 0.10 | 0.13 | 0.13 | 74 | 1004.9 |
| 20260505184542 | 18 | 143 | 6.4 | 22.5 | 0.10 | 0.13 | 0.13 | 69 | 1005.4 |
| 20260505183040 | 21 | 264 | 8.0 | 22.5 | 0.00 | 0.03 | 0.03 | 61 | 1004.9 |
| 20260505181543 | 23 | 241 | 6.4 | 16.1 | 0.00 | 0.03 | 0.03 | 52 | 1004.1 |
| 20260505180039 | 24 | 326 | 4.8 | 16.1 | 0.00 | 0.03 | 0.03 | 49 | 1003.6 |
| 20260505174541 | 25 | 288 | 8.0 | 22.5 | 0.00 | 0.03 | 0.03 | 45 | 1003.6 |
| 20260505173034 | 25 | 253 | 8.0 | 24.1 | 0.00 | 0.03 | 0.03 | 44 | 1003.5 |
| 20260505171533 | 25 | 236 | 1.6 | 8.0 | 0.00 | 0.03 | 0.03 | 47 | 1003.7 |
| 20260505170038 | 24 | 224 | 3.2 | 17.7 | 0.00 | 0.03 | 0.03 | 46 | 1003.6 |
| 20260505164529 | 25 | 217 | 8.0 | 20.9 | 0.00 | 0.03 | 0.03 | 46 | 1003.9 |
| 20260505163030 | 24 | 264 | 8.0 | 16.1 | 0.00 | 0.03 | 0.03 | 47 | 1004.2 |